Time,TemperatureF,DewpointF,PressureIn,WindDirection,WindDirectionDegrees,WindSpeedMPH,WindSpeedGustMPH,Humidity,HourlyPrecipIn,Conditions,Clouds,dailyrainin,SoftwareType,DateUTC
2013-09-10 00:13:00,76.2,73.0,30.02,WSW,246,0.0,0.0,88,0.00,,,0.00,weatherlink.com 1.10,2013-09-10 05:13:00,
2013-09-10 00:28:00,75.9,72.0,30.02,WSW,246,0.0,0.0,88,0.00,,,0.00,weatherlink.com 1.10,2013-09-10 05:28:00,
2013-09-10 00:43:00,75.5,72.0,30.02,WSW,246,0.0,0.0,89,0.00,,,0.00,weatherlink.com 1.10,2013-09-10 05:43:00,
2013-09-10 00:58:00,75.2,72.0,30.02,WSW,246,0.0,0.0,89,0.00,,,0.00,weatherlink.com 1.10,2013-09-10 05:58:00,
2013-09-10 01:13:00,75.2,72.0,30.02,WSW,247,0.0,0.0,90,0.00,,,0.00,weatherlink.com 1.10,2013-09-10 06:13:00,
2013-09-10 01:28:00,75.1,72.0,30.02,WSW,246,0.0,0.0,90,0.00,,,0.00,weatherlink.com 1.10,2013-09-10 06:28:00,
2013-09-10 01:43:00,74.9,72.0,30.02,WSW,246,0.0,0.0,90,0.00,,,0.00,weatherlink.com 1.10,2013-09-10 06:43:00,
2013-09-10 01:58:00,74.9,72.0,30.02,WSW,246,0.0,0.0,91,0.00,,,0.00,weatherlink.com 1.10,2013-09-10 06:58:00,
2013-09-10 02:13:00,74.6,72.0,30.02,WSW,246,0.0,0.0,91,0.00,,,0.00,weatherlink.com 1.10,2013-09-10 07:13:00,
2013-09-10 02:28:00,74.3,72.0,30.03,WSW,247,0.0,0.0,92,0.00,,,0.00,weatherlink.com 1.10,2013-09-10 07:28:00,
2013-09-10 02:44:00,74.1,72.0,30.03,WSW,246,0.0,0.0,92,0.00,,,0.00,weatherlink.com 1.10,2013-09-10 07:44:00,
2013-09-10 02:59:00,73.8,71.0,30.03,WSW,246,0.0,0.0,92,0.00,,,0.00,weatherlink.com 1.10,2013-09-10 07:59:00,
2013-09-10 03:14:00,73.5,71.0,30.03,WSW,246,0.0,0.0,93,0.00,,,0.00,weatherlink.com 1.10,2013-09-10 08:14:00,
2013-09-10 03:29:00,73.1,71.0,30.04,WSW,246,0.0,0.0,94,0.00,,,0.00,weatherlink.com 1.10,2013-09-10 08:29:00,
2013-09-10 03:44:00,72.9,71.0,30.04,WSW,246,0.0,0.0,95,0.00,,,0.00,weatherlink.com 1.10,2013-09-10 08:44:00,
2013-09-10 03:59:00,72.7,71.0,30.04,WSW,246,0.0,0.0,95,0.00,,,0.00,weatherlink.com 1.10,2013-09-10 08:59:00,
2013-09-10 04:14:00,72.7,71.0,30.05,WSW,246,0.0,0.0,95,0.00,,,0.00,weatherlink.com 1.10,2013-09-10 09:14:00,
2013-09-10 04:29:00,72.5,71.0,30.05,WSW,246,0.0,0.0,95,0.00,,,0.00,weatherlink.com 1.10,2013-09-10 09:29:00,
2013-09-10 04:44:00,72.3,71.0,30.05,WSW,246,0.0,0.0,96,0.00,,,0.00,weatherlink.com 1.10,2013-09-10 09:44:00,
2013-09-10 04:59:00,72.2,71.0,30.05,WSW,246,0.0,0.0,96,0.00,,,0.00,weatherlink.com 1.10,2013-09-10 09:59:00,
2013-09-10 05:14:00,72.0,71.0,30.05,WSW,246,0.0,0.0,96,0.00,,,0.00,weatherlink.com 1.10,2013-09-10 10:14:00,
2013-09-10 05:29:00,71.8,71.0,30.06,WSW,246,0.0,0.0,96,0.00,,,0.00,weatherlink.com 1.10,2013-09-10 10:29:00,
2013-09-10 05:44:00,71.6,70.0,30.06,WSW,246,0.0,0.0,96,0.00,,,0.00,weatherlink.com 1.10,2013-09-10 10:44:00,
2013-09-10 05:59:00,71.6,70.0,30.07,WSW,246,0.0,0.0,96,0.00,,,0.00,weatherlink.com 1.10,2013-09-10 10:59:00,
2013-09-10 06:14:00,71.5,70.0,30.07,WSW,246,0.0,0.0,96,0.00,,,0.00,weatherlink.com 1.10,2013-09-10 11:14:00,
2013-09-10 06:29:00,71.5,71.0,30.07,WSW,246,0.0,0.0,97,0.00,,,0.00,weatherlink.com 1.10,2013-09-10 11:29:00,
2013-09-10 06:44:00,71.4,71.0,30.08,WSW,246,0.0,0.0,97,0.00,,,0.00,weatherlink.com 1.10,2013-09-10 11:44:00,
2013-09-10 06:59:00,71.5,71.0,30.09,WSW,247,0.0,0.0,97,0.00,,,0.00,weatherlink.com 1.10,2013-09-10 11:59:00,
2013-09-10 07:14:00,71.7,71.0,30.09,WSW,246,0.0,0.0,97,0.00,,,0.00,weatherlink.com 1.10,2013-09-10 12:14:00,
2013-09-10 07:29:00,72.0,71.0,30.09,WSW,246,0.0,0.0,97,0.00,,,0.00,weatherlink.com 1.10,2013-09-10 12:29:00,
2013-09-10 07:44:00,72.5,72.0,30.10,WSW,246,0.0,0.0,97,0.00,,,0.00,weatherlink.com 1.10,2013-09-10 12:44:00,
2013-09-10 07:59:00,73.3,72.0,30.09,WSW,246,0.0,0.0,97,0.00,,,0.00,weatherlink.com 1.10,2013-09-10 12:59:00,
2013-09-10 08:14:00,74.2,73.0,30.10,WSW,246,0.0,0.0,96,0.00,,,0.00,weatherlink.com 1.10,2013-09-10 13:14:00,
2013-09-10 08:29:00,75.0,73.0,30.10,WSW,246,0.0,0.0,94,0.00,,,0.00,weatherlink.com 1.10,2013-09-10 13:29:00,
2013-09-10 08:44:00,76.3,74.0,30.10,WSW,246,0.0,0.0,92,0.00,,,0.00,weatherlink.com 1.10,2013-09-10 13:44:00,
2013-09-10 08:59:00,77.9,75.0,30.10,WSW,252,0.0,1.0,89,0.00,,,0.00,weatherlink.com 1.10,2013-09-10 13:59:00,
2013-09-10 09:14:00,79.8,75.0,30.11,WNW,282,0.0,1.0,85,0.00,,,0.00,weatherlink.com 1.10,2013-09-10 14:14:00,
2013-09-10 09:29:00,81.4,75.0,30.11,WNW,282,0.0,1.0,82,0.00,,,0.00,weatherlink.com 1.10,2013-09-10 14:29:00,
2013-09-10 09:44:00,82.4,76.0,30.11,WNW,282,0.0,1.0,80,0.00,,,0.00,weatherlink.com 1.10,2013-09-10 14:44:00,
2013-09-10 09:59:00,82.9,75.0,30.12,West,276,0.0,1.0,78,0.00,,,0.00,weatherlink.com 1.10,2013-09-10 14:59:00,
2013-09-10 10:14:00,83.9,74.0,30.12,West,281,0.0,1.0,73,0.00,,,0.00,weatherlink.com 1.10,2013-09-10 15:14:00,
2013-09-10 10:30:00,84.4,76.0,30.12,West,281,0.0,1.0,76,0.00,,,0.00,weatherlink.com 1.10,2013-09-10 15:30:00,
2013-09-10 10:45:00,85.0,77.0,30.12,West,262,0.0,1.0,76,0.00,,,0.00,weatherlink.com 1.10,2013-09-10 15:45:00,
2013-09-10 11:00:00,85.6,75.0,30.12,NNW,333,0.0,1.0,71,0.00,,,0.00,weatherlink.com 1.10,2013-09-10 16:00:00,
2013-09-10 11:15:00,87.3,77.0,30.12,West,277,0.0,1.0,72,0.00,,,0.00,weatherlink.com 1.10,2013-09-10 16:15:00,
2013-09-10 11:30:00,87.9,77.0,30.12,NNW,340,0.0,0.0,69,0.00,,,0.00,weatherlink.com 1.10,2013-09-10 16:30:00,
2013-09-10 11:45:00,88.7,77.0,30.11,East,101,0.0,2.0,69,0.00,,,0.00,weatherlink.com 1.10,2013-09-10 16:45:00,
2013-09-10 12:00:00,89.9,76.0,30.11,SSE,150,0.0,2.0,63,0.00,,,0.00,weatherlink.com 1.10,2013-09-10 17:00:00,
2013-09-10 12:15:00,90.4,76.0,30.11,NE,45,0.0,2.0,63,0.00,,,0.00,weatherlink.com 1.10,2013-09-10 17:15:00,
2013-09-10 12:30:00,90.5,75.0,30.10,WSW,244,0.0,1.0,61,0.00,,,0.00,weatherlink.com 1.10,2013-09-10 17:30:00,
2013-09-10 12:45:00,91.3,75.0,30.10,WSW,240,0.0,1.0,60,0.00,,,0.00,weatherlink.com 1.10,2013-09-10 17:45:00,
2013-09-10 13:00:00,92.4,73.0,30.10,NE,34,0.0,2.0,54,0.00,,,0.00,weatherlink.com 1.10,2013-09-10 18:00:00,
2013-09-10 13:15:00,92.4,72.0,30.09,SSE,162,0.0,2.0,52,0.00,,,0.00,weatherlink.com 1.10,2013-09-10 18:15:00,
2013-09-10 13:30:00,92.7,75.0,30.08,WNW,282,0.0,1.0,56,0.00,,,0.00,weatherlink.com 1.10,2013-09-10 18:30:00,
2013-09-10 13:45:00,92.4,74.0,30.07,WSW,237,0.0,2.0,56,0.00,,,0.00,weatherlink.com 1.10,2013-09-10 18:45:00,
2013-09-10 14:00:00,93.8,74.0,30.07,NNE,27,1.0,1.0,52,0.00,,,0.00,weatherlink.com 1.10,2013-09-10 19:00:00,
2013-09-10 14:15:00,93.7,77.0,30.06,SSW,202,0.0,7.0,58,0.00,,,0.00,weatherlink.com 1.10,2013-09-10 19:15:00,
2013-09-10 14:30:00,93.6,71.0,30.06,East,88,2.0,4.0,48,0.00,,,0.00,weatherlink.com 1.10,2013-09-10 19:30:00,
2013-09-10 14:45:00,93.1,73.0,30.05,SW,226,0.0,3.0,52,0.00,,,0.00,weatherlink.com 1.10,2013-09-10 19:45:00,
2013-09-10 15:00:00,89.2,75.0,30.05,SW,216,0.0,1.0,64,0.00,,,0.00,weatherlink.com 1.10,2013-09-10 20:00:00,
2013-09-10 15:15:00,86.5,76.0,30.05,SW,221,0.0,1.0,71,0.00,,,0.00,weatherlink.com 1.10,2013-09-10 20:15:00,
2013-09-10 15:30:00,83.3,75.0,30.06,SSW,204,0.0,6.0,76,0.00,,,0.00,weatherlink.com 1.10,2013-09-10 20:30:00,
2013-09-10 17:45:00,-999.0,-99.9,0.00,North,-999,-999.0,-999.0,-999,0.00,,,0.00,weatherlink.com 1.10,2013-09-10 22:45:00,
2013-09-10 17:53:00,74.2,73.0,30.06,ENE,72,1.0,1.0,96,0.00,,,0.00,weatherlink.com 1.10,2013-09-10 22:53:00,
2013-09-10 18:08:00,74.4,73.0,30.07,SE,143,0.0,1.0,96,0.00,,,0.00,weatherlink.com 1.10,2013-09-10 23:08:00,
2013-09-10 18:23:00,74.8,74.0,30.06,SE,142,0.0,1.0,96,0.00,,,0.00,weatherlink.com 1.10,2013-09-10 23:23:00,
2013-09-10 18:39:00,75.2,74.0,30.07,NW,304,1.0,2.0,95,0.00,,,0.00,weatherlink.com 1.10,2013-09-10 23:39:00,
2013-09-10 18:54:00,75.2,74.0,30.08,SSE,149,0.0,1.0,95,0.00,,,0.00,weatherlink.com 1.10,2013-09-10 23:54:00,
2013-09-10 19:09:00,74.8,73.0,30.08,East,84,2.0,2.0,94,0.00,,,0.00,weatherlink.com 1.10,2013-09-11 00:09:00,
2013-09-10 19:24:00,74.4,73.0,30.09,East,100,2.0,3.0,95,0.00,,,0.00,weatherlink.com 1.10,2013-09-11 00:24:00,
2013-09-10 19:39:00,74.0,73.0,30.09,East,85,0.0,0.0,96,0.00,,,0.00,weatherlink.com 1.10,2013-09-11 00:39:00,
2013-09-10 19:54:00,73.5,72.0,30.09,East,85,0.0,0.0,96,0.00,,,0.00,weatherlink.com 1.10,2013-09-11 00:54:00,
2013-09-10 20:09:00,73.3,72.0,30.10,East,85,0.0,0.0,97,0.00,,,0.00,weatherlink.com 1.10,2013-09-11 01:09:00,
2013-09-10 20:24:00,73.2,72.0,30.09,East,85,0.0,1.0,97,0.00,,,0.00,weatherlink.com 1.10,2013-09-11 01:24:00,
2013-09-10 20:39:00,73.0,72.0,30.10,East,85,0.0,0.0,97,0.00,,,0.00,weatherlink.com 1.10,2013-09-11 01:39:00,
2013-09-10 20:54:00,73.1,73.0,30.10,East,85,0.0,0.0,98,0.00,,,0.00,weatherlink.com 1.10,2013-09-11 01:54:00,
2013-09-10 21:09:00,73.2,73.0,30.10,East,85,0.0,0.0,98,0.00,,,0.00,weatherlink.com 1.10,2013-09-11 02:09:00,
2013-09-10 21:24:00,73.0,72.0,30.11,East,85,0.0,0.0,98,0.00,,,0.00,weatherlink.com 1.10,2013-09-11 02:24:00,
2013-09-10 21:39:00,72.9,72.0,30.10,East,85,0.0,0.0,98,0.00,,,0.00,weatherlink.com 1.10,2013-09-11 02:39:00,
2013-09-10 21:54:00,73.1,73.0,30.11,East,85,0.0,0.0,98,0.00,,,0.00,weatherlink.com 1.10,2013-09-11 02:54:00,
2013-09-10 22:09:00,73.0,72.0,30.11,East,85,0.0,0.0,98,0.00,,,0.00,weatherlink.com 1.10,2013-09-11 03:09:00,
2013-09-10 22:24:00,73.1,73.0,30.11,East,85,0.0,0.0,98,0.00,,,0.00,weatherlink.com 1.10,2013-09-11 03:24:00,
2013-09-10 22:39:00,73.1,73.0,30.11,East,85,0.0,0.0,98,0.00,,,0.00,weatherlink.com 1.10,2013-09-11 03:39:00,
2013-09-10 22:54:00,73.0,72.0,30.11,East,85,0.0,1.0,98,0.00,,,0.00,weatherlink.com 1.10,2013-09-11 03:54:00,
2013-09-10 23:09:00,73.0,72.0,30.11,East,85,0.0,0.0,98,0.00,,,0.00,weatherlink.com 1.10,2013-09-11 04:09:00,
2013-09-10 23:24:00,73.1,73.0,30.11,East,85,0.0,0.0,98,0.00,,,0.00,weatherlink.com 1.10,2013-09-11 04:24:00,
2013-09-10 23:39:00,73.0,73.0,30.11,East,85,0.0,0.0,99,0.00,,,0.00,weatherlink.com 1.10,2013-09-11 04:39:00,
2013-09-10 23:54:00,73.0,73.0,30.10,East,85,0.0,0.0,99,0.00,,,0.00,weatherlink.com 1.10,2013-09-11 04:54:00,